Location: Bogis-Bossey
(46.3500°N, 6.1667°E)
Time: 17:42:21
(UTC+00:00)

NOSS 3-1 (C) - Pass Details

Date: 17 August 2022
Orbit: 689 x 1519 km, 63.4° (Epoch: 11 September)

Event Time Altitude Azimuth Distance (km) Brightness Sun altitude
Rises 20:18:13 0° 238° (WSW) 3,152 6.4 -15.3°
Reaches altitude 10° 20:20:30 10° 244° (WSW) 2,296 5.8 -15.6°
Maximum altitude 20:25:34 49° 319° (NW) 1,093 4.2 -16.3°
Drops below altitude 10° 20:31:39 10° 34° (NNE) 2,751 6.0 -17.1°
Sets 20:34:38 0° 40° (NE) 3,842 6.7 -17.4°
